Home   Weather   Netanya   Past weeks

Flag for Israel Past Weather in Netanya, Israel — Yesterday and Last 2 Weeks

Now
82 °F

Clear.


Feels Like: 84 °F
Forecast: 80 / 91 °F
Wind: 14 mph from North

Location: Dov Airport

Current Time: Oct 1, 2016 at 8:15:08 PM

Latest Report: Oct 1, 2016 at 6:50 PM


Visibility: 10 mi

Pressure: 29.83 "Hg

Humidity: 55%

Dew Point: 64 °F

Location of NetanyaLocation

Past Weather in Netanya — Graph

°F

Netanya Temperature Yesterday

Maximum temperature yesterday: 84 °F (at 1:50 PM)
Minimum temperature yesterday: 70 °F (at 5:50 AM)
Average temperature yesterday: 78 °F

High & Low Weather Summary for the Past Weeks

 TemperatureHumidityPressure
High86 °F (Sep 17, 12:50 PM)89% (Sep 21, 5:00 AM)30.07 "Hg (Sep 21, 5:00 AM)
Low70 °F (Sep 30, 5:50 AM)22% (Sep 25, 9:50 AM)29.74 "Hg (Sep 25, 2:50 PM)
Average81 °F62%29.91 "Hg
* Reported Sep 16 6:50 PM — Oct 1 6:50 PM, Netanya, Weather by CustomWeather, © 2016

Note: Actual official high and low records may vary slightly from our data, if they occured in-between our weather recording intervals... More about our weather records

Advertising

Netanya Weather History for the Previous 24 Hours

Scroll right to see more
 ConditionsComfort  
Time TempWeatherWind HumidityBarometerVisibility
6:50 PM
Sat, Oct 1
82 °FClear.14 mph55%29.83 "Hg10 mi
5:50 PM82 °FSunny.17 mph58%29.83 "Hg10 mi
4:50 PM84 °FSunny.20 mph58%29.83 "Hg10 mi
3:50 PM84 °FSunny.18 mph62%29.83 "Hg10 mi
2:50 PM86 °FSunny.17 mph55%29.86 "Hg10 mi
1:50 PM84 °FSunny.18 mph58%29.86 "Hg10 mi
12:50 PM86 °FSunny.14 mph46%29.89 "Hg10 mi
11:50 AM86 °FSunny.13 mph46%29.89 "Hg10 mi
10:50 AM81 °FSunny.10 mph58%29.89 "Hg10 mi
9:50 AM79 °FSunny.8 mph61%29.92 "Hg10 mi
8:50 AM77 °FSunny.5 mph65%29.92 "Hg10 mi
7:50 AM72 °FSunny.6 mph73%29.92 "Hg10 mi
6:50 AM70 °FSunny.6 mph73%29.92 "Hg10 mi
6:00 AM70 °FClear.5 mph73%29.92 "Hg10 mi
9:50 PM
Fri, Sep 30
77 °FClear.3 mph65%29.95 "Hg10 mi
8:50 PM77 °FClear.6 mph65%29.95 "Hg10 mi
Weather by CustomWeather, © 2016

See weather overviewHow to use our weather pages